This is the latest recevied weather packets stored in our database for station/object K8RLH. If no packets are shown the sender has not sent any weather packets the latest 10 day(s).
| Time | Temp. | Humidity | Pressure | Rain* | Wind** | Luminosity | Snow |
|---|---|---|---|---|---|---|---|
| 1778128167 | 17.78° C | 97% | 1014.5 hPa | 6.1 mm | - | 0 W/m² | - |
| 1778127864 | 17.78° C | 97% | 1014.6 hPa | 3.56 mm | - | 0 W/m² | - |
| 1778127559 | 17.78° C | 97% | 1014.7 hPa | 3.05 mm | - | 0 W/m² | - |
| 1778127256 | 17.78° C | 97% | 1014.8 hPa | 7.11 mm | - | 0 W/m² | - |
| 1778126954 | 17.78° C | 97% | 1014.9 hPa | 19.81 mm | - | 0 W/m² | - |
| 1778126649 | 17.78° C | 97% | 1014.8 hPa | 13.72 mm | - | 0 W/m² | - |
| 1778126345 | 17.78° C | 97% | 1014.9 hPa | 11.94 mm | - | 0 W/m² | - |
| 1778126042 | 17.78° C | 97% | 1014.4 hPa | 25.91 mm | - | 0 W/m² | - |
| 1778125739 | 17.78° C | 97% | 1014.4 hPa | 16.26 mm | - | 0 W/m² | - |
| 1778125435 | 17.78° C | 97% | 1014.8 hPa | 3.05 mm | - | 0 W/m² | - |
| 1778125134 | 17.78° C | 97% | 1014.7 hPa | 1.78 mm | - | 0 W/m² | - |
| 1778124831 | 17.78° C | 97% | 1014.8 hPa | 0 mm | - | 0 W/m² | - |
| 1778124528 | 17.78° C | 97% | 1014.7 hPa | 0 mm | - | 0 W/m² | - |
| 1778124225 | 17.78° C | 97% | 1014.7 hPa | 0 mm | - | 0 W/m² | - |
| 1778123921 | 17.78° C | 97% | 1014.8 hPa | 0 mm | - | 0 W/m² | - |
| 1778123618 | 17.78° C | 97% | 1014.9 hPa | 0 mm | - | 0 W/m² | - |
| 1778123314 | 17.78° C | 97% | 1014.8 hPa | 1.78 mm | - | 0 W/m² | - |
| 1778123012 | 17.78° C | 97% | 1015.1 hPa | 1.78 mm | - | 0 W/m² | - |
| 1778122708 | 18.33° C | 97% | 1015.5 hPa | 0 mm | - | 0 W/m² | - |
| 1778122406 | 17.78° C | 97% | 1015.2 hPa | 1.27 mm | - | 0 W/m² | - |
| 1778122104 | 18.33° C | 97% | 1015.5 hPa | 3.05 mm | - | 0 W/m² | - |
| 1778121801 | 17.78° C | 96% | 1015 hPa | 4.83 mm | - | 0 W/m² | - |
| 1778121496 | 18.33° C | 96% | 1014.6 hPa | 7.11 mm | - | 0 W/m² | - |
| 1778121193 | 18.33° C | 96% | 1015.2 hPa | 4.32 mm | - | 0 W/m² | - |
| 1778120891 | 18.33° C | 96% | 1015.5 hPa | 4.83 mm | - | 0 W/m² | - |
* Rain latest hour (hover to see other rain measurements)
** Current wind speed in m/s (hover to see current wind gust speed)